Regional Weather Roundup
Issued by NWS

Home | Current Version | Previous Version | Text Only | Print | Product List | Glossary On
Versions: 1 2 3 4 5 6 7 8 9 10 11 12 13 14 15 16 17 18 19 20 21 22 23 24 25 26 27 28 29 30 31 32 33 34 35 36 37 38 39 40 41 42 43 44 45 46 47 48 49 50
000
ASUS45 KBOU 251207
RWRCO

WEATHER ROUNDUP FOR COLORADO
NATIONAL WEATHER SERVICE DENVER/BOULDER CO
600 AM MDT MON SEP 25 2017

NOTE: "FAIR" INDICATES FEW OR NO CLOUDS BELOW 12000 FEET WITH NO
SIGNIFICANT WEATHER AND/OR OBSTRUCTIONS TO VISIBILITY.

COZ001>005-013-030-031-251300-
...NORTHWEST COLORADO...

CITY           SKY/WX    TMP DP  RH WIND       PRES   REMARKS
CRAIG          CLOUDY    30  28  92 CALM      30.12S
HAYDEN         MOCLDY    30  28  92 SE3       30.14R
MEEKER         MOCLDY    28  26  92 CALM      30.12R
RABBIT EARS PA FAIR      27  21  80 CALM      30.16R
STEAMBOAT SPGS FAIR      27  27  98 CALM      30.13R
WALDEN         FAIR      25  19  80 SE8       30.13S WCI  16
$$

COZ006>008-011-251300-
...WEST CENTRAL VALLEYS...

CITY           SKY/WX    TMP DP  RH WIND       PRES   REMARKS
GRAND JUNCTION FAIR      35  30  82 CALM      30.07R
MONTROSE       FAIR      32  27  81 SE5       30.11R WCI  27
EAGLE          FAIR      28  23  81 CALM      30.15R
RIFLE          FAIR      33  30  88 CALM      30.10R
DELTA          NOT AVBL
NUCLA          NOT AVBL
$$

COZ017>023-064>068-251300-
...SOUTHWEST COLORADO...

CITY           SKY/WX    TMP DP  RH WIND       PRES   REMARKS
DURANGO        FAIR      26  20  77 CALM      30.05S
CORTEZ         FAIR      26  23  88 NE3       30.06S
PAGOSA SPRINGS FAIR      35  26  69 CALM      30.07F
TELLURIDE      FAIR      27  17  65 SE6       30.14S WCI  21
WOLF CREEK PAS FAIR      27  12  54 S6        30.25S WCI  20
$$

COZ009-010-012-014-032>034-037-058>063-251300-
...CENTRAL COLORADO...

CITY           SKY/WX    TMP DP  RH WIND       PRES   REMARKS
ASPEN          FAIR      25  19  78 SW7       30.10S WCI  17
BUENA VISTA    CLOUDY    37  25  61 NW7       30.10R
COPPER MTN     FAIR      30   7  37 MISG      30.19F
BERTHOUD PASS  HAZE      19  10  68 SE10G23   30.20F VSB 3/4 WCI   8
COTTONWOOD PAS CLOUDY    41  21  45 CALM      30.14S
GUNNISON       FAIR      22  16  78 N3        30.14S
KREMMLING      FAIR      28  23  80 CALM      30.14S
LEADVILLE      FAIR      23  17  78 E7        30.13F WCI  15
MONARCH PASS   CLOUDY    30  14  51 E6        30.29F WCI  24
SALIDA         MOCLDY    43  36  77 CALM      30.17S
SUNLIGHT       FAIR      25  14  63 CALM      30.20S
WILKERSON PASS FOG       30  28  93 S6        30.21F VSB 3/4 WCI  24
$$

COZ069>075-251300-
...SAN LUIS VALLEY/SANGRE DE CRISTO MOUNTAINS...

CITY           SKY/WX    TMP DP  RH WIND       PRES   REMARKS
ALAMOSA        FAIR      26  24  92 S3        30.07R
DEL NORTE      FAIR      33  24  68 W13       30.08S WCI  24
LA VETA PASS   FOG       36  34  93 NE9       30.27S VSB<1/4
SAGUACHE       FAIR      36  21  55 NW13      30.08S
$$

COZ035-036-038>040-251300-
...NORTHERN COLORADO FRONT RANGE...

CITY           SKY/WX    TMP DP  RH WIND       PRES   REMARKS
DENVER INTL AP CLOUDY    45  41  86 N8        30.10S
DMNS CITY PARK   N/A     44  43  95 NW5G10    30.10S
AURORA         CLOUDY    43  43 100 N8        30.10S
FRONT RANGE AP CLOUDY    45  45 100 N9        30.11R FOG
ERIE MUNI ARPT CLOUDY    44  42  91 NW3       30.16S
BOULDER MUN AP CLOUDY    45  41  87 N6        30.11S
CENTENNIAL     CLOUDY    44  44 100 N12       30.09F FOG
BROOMFIELD     RAIN      45  41  87 NW9       30.11F
FORT COLLINS   CLOUDY    43  41  93 NW5       30.12F
LONGMONT       CLOUDY    46  41  84 N6        30.13S
$$

COZ041-046-047-076>085-087-088-251300-
...PIKES PEAK/PALMER DIVIDE AND SOUTHERN FOOTHILLS...

CITY           SKY/WX    TMP DP  RH WIND       PRES   REMARKS
COLO. SPRINGS  MOCLDY    47  43  86 NE12      30.08S
A. F. ACADEMY  MOCLDY    43  42  98 N8        30.09S
SCHRIEVER AFB  MOCLDY    44  42  92 MISG      30.08F
CHEYENNE MTN   MOCLDY    43  40  88 N12       30.03R
ELLICOTT       CLOUDY   N/A N/A N/A NE10      30.05F
FALCON         CLOUDY    42  41  97 N7        30.11S
FORT CARSON    MOCLDY    46  43  91 N10       30.05S
LIMON            N/A    N/A N/A N/A MISG        N/A
MONUMENT HILL  CLOUDY    39  39 100 N7        30.13R
CANON CITY     CLOUDY    52  48  87 SE5       30.04F
WALSENBURG       N/A    N/A N/A N/A MISG        N/A
TRINIDAD       LGT RAIN  50  50 100 N5        30.04R FOG
$$

COZ042>045-048>051-090-091-251300-
...NORTHEAST COLORADO...

CITY           SKY/WX    TMP DP  RH WIND       PRES   REMARKS
GREELEY ARPT   LGT RAIN  45  44  97 N7        30.11F FOG
AKRON          CLOUDY    44  42  93 NE10      30.08R
BURLINGTON     LGT RAIN  49  48  97 N13       30.03R FOG
WRAY           CLOUDY    48  48 100 N13       30.05R
YUMA           CLOUDY    45  43  93 N8        30.08R
STERLING       CLOUDY    45  45 100 N7        30.08R
HOLYOKE        CLOUDY    46  45  93 N15       30.06R
FORT MORGAN    CLOUDY    44  43  95 N8        30.11R FOG
$$

COZ086-089-092>099-251300-
...SOUTHEAST COLORADO...

CITY           SKY/WX    TMP DP  RH WIND       PRES   REMARKS
PUEBLO         MOCLDY    52  47  83 W3        30.01F
LA JUNTA       CLOUDY    53  51  93 N8        30.00R
LAMAR          CLOUDY    53  51  93 N12       29.95S
SPRINGFIELD      N/A     53  53 100 N13       29.96R
$$



USA.gov is the U.S. government's official web portal to all federal, state and local government web resources and services.